Temperature
16 16 16 16 16 16 17 17 17 17 17 17 17 17 17 16 16 16 16 16 16 16 16 16 16 16 16 15 15 15 15 15 15 15 15 15 14 14 14 14 14 14 14
16 16 16 16 16 16 16 17 17 17 17 17 17 16 16 16 16 16 16 16 16 16 16 16 16 16 16 15 15 15 15 15 15 15 15 14 14 14 14 14 14 14 14
16 16 16 16 16 16 16 16 16 17 17 17 16 16 16 16 16 16 16 16 16 16 15 16 16 15 15 15 15 15 15 15 15 15 15 14 14 14 14 14 14 14 14
16 16 15 16 16 16 16 16 16 16 16 16 16 16 16 16 16 16 16 16 16 16 15 15 15 15 15 15 15 15 15 15 15 15 14 14 14 14 14 14 14 14 14
15 15 15 15 16 16 16 16 16 16 16 16 16 16 16 16 16 16 16 16 16 16 15 15 15 15 15 15 15 15 15 15 15 14 14 14 14 14 14 14 14 14 14
15 15 15 15 15 15 15 16 16 16 16 16 16 16 16 16 16 15 15 16 16 15 15 15 15 15 15 15 15 15 15 15 15 14 14 14 14 14 14 14 14 14 14
15 15 15 15 15 15 15 15 15 15 16 16 16 16 16 16 16 16 15 15 15 15 15 15 15 15 15 15 15 15 15 14 14 14 14 14 14 14 14 14 14 14 14
15 15 15 15 15 15 15 15 15 15 15 15 15 15 15 15 15 15 15 15 15 15 15 15 15 15 15 15 15 14 14 14 14 14 14 14 14 14 14 14 14 14 14
14 14 14 14 14 15 15 15 15 15 15 15 15 15 15 15 15 15 15 15 15 15 15 15 15 15 15 14 14 14 14 14 14 14 14 14 14 14 14 14 14 14 14
14 14 14 14 14 14 14 14 14 14 15 15 15 15 15 15 15 15 15 15 15 15 14 14 14 14 14 14 14 14 14 14 14 14 14 14 14 14 14 14 14 14 14
13 14 14 14 14 14 14 14 14 14 14 14 14 14 15 15 15 15 15 14 14 14 14 14 14 14 14 14 14 14 14 14 14 14 14 14 14 14 14 14 14 14 14
13 13 13 13 13 13 13 14 14 14 14 14 14 14 14 14 14 14 14 14 14 14 14 14 14 14 14 14 14 14 14 14 14 14 14 14 14 14 13 13 13 13 13
13 13 13 13 13 13 13 13 13 14 14 14 14 14 14 14 14 14 14 14 14 14 14 14 14 14 14 14 14 14 14 14 14 13 13 13 13 13 13 13 13 13 13
12 12 12 13 13 13 13 13 13 13 13 13 13 13 13 13 13 13 13 13 13 13 13 13 13 13 13 13 13 13 13 13 13 13 13 13 13 13 13 13 13 13 13
12 12 12 12 12 12 12 13 13 13 13 13 13 13 13 13 13 13 13 13 13 13 13 13 13 13 13 13 13 13 13 13 13 13 13 13 13 13 13 13 13 13 13
12 12 12 12 12 12 12 12 12 12 12 12 12 12 12 12 12 12 13 13 13 12 12 13 13 13 13 13 13 13 13 13 13 13 13 13 13 13 13 13 13 13 13
12 12 12 12 12 12 12 12 12 12 12 12 12 12 12 12 12 12 12 12 12 12 12 12 12 12 12 12 12 12 12 12 12 13 13 13 13 13 13 13 13 13 13
12 11 11 11 12 11 12 12 12 12 12 11 11 11 11 11 12 12 12 12 12 12 12 12 12 12 12 12 12 12 12 12 12 12 12 12 12 12 12 13 13 13 13
11 11 11 11 11 11 11 11 11 11 11 11 11 11 11 11 11 11 11 11 11 11 11 11 12 12 12 12 12 12 12 12 12 12 12 12 12 12 12 12 12 12 12
11 11 11 11 11 11 11 11 11 11 11 11 11 11 11 11 11 11 11 11 11 11 11 11 11 11 11 11 11 11 11 11 11 11 12 12 12 12 12 12 12 12 12
11 11 11 11 11 11 10 10 10 10 10 10 10 10 10 10 10 10 10 10 10 10 10 10 10 10 10 10 10 10 11 11 11 11 11 11 11 11 11 11 11 11 12
10 10 10 10 10 10 10 10 10 10 10 10 10 10 10 10 10 10 10 10 10 10 10 10 10 10 10 9 9 9 9 10 10 10 10 11 11 11 11 11 11 11 11
10 10 10 10 10 10 10 10 10 9 10 10 10 10 9 9 9 9 9 9 9 9 9 9 9 9 9 9 8 8 8 8 9 9 9 10 10 10 10 10 10 10 11
10 10 10 10 10 10 9 9 9 9 9 9 9 9 9 9 9 9 9 9 9 9 8 8 8 8 8 8 8 8 8 7 7 8 8 9 9 9 9 10 10 10 10
10 10 10 10 9 9 9 9 9 9 9 9 9 8 8 8 8 8 8 8 8 8 8 8 8 8 8 7 7 7 7 7 7 7 7 8 8 9 9 9 9 9 9
10 10 9 9 9 9 9 9 8 8 8 8 8 8 8 8 8 8 8 8 7 7 7 7 7 7 7 7 7 6 6 6 6 6 6 7 7 8 8 8 8 8 9
Wind_Speed
3 5 9 10 10 11 11 11 11 11 12 12 11 11 11 10 9 9 9 9 9 9 9 9 9 10 10 10 10 10 10 10 10 10 10 11 11 11 11 11 10 10 11
5 7 10 11 11 11 11 11 11 11 11 10 10 10 10 9 9 8 8 8 8 8 8 8 8 9 9 9 9 9 9 9 9 9 10 9 9 10 10 9 9 9 11
6 8 10 11 11 11 11 10 10 10 10 9 9 9 9 8 8 8 7 7 7 7 7 7 7 8 8 8 8 8 8 8 9 9 8 7 7 8 8 8 8 8 9
6 8 10 11 11 11 10 10 9 9 9 8 8 8 7 7 7 7 7 6 6 6 6 6 6 7 7 7 7 7 7 7 7 7 7 6 5 7 7 7 7 7 8
6 7 9 11 11 10 10 10 9 9 8 8 7 7 6 6 6 6 6 6 6 5 5 5 5 6 5 6 6 6 5 6 5 6 6 5 4 5 6 6 6 6 7
5 7 9 11 11 10 9 9 9 8 8 7 6 6 6 5 5 5 5 5 5 5 4 4 4 4 4 4 5 5 5 5 5 5 5 4 3 5 5 5 5 5 6
6 6 9 11 10 10 9 8 8 7 7 6 6 5 5 5 4 4 4 4 4 4 3 3 3 3 3 3 4 4 5 5 5 5 4 4 4 5 5 5 5 5 5
6 6 8 10 10 9 8 8 7 7 6 6 5 5 5 4 4 4 4 3 2 2 2 2 2 2 2 2 3 4 4 4 5 4 4 5 5 5 5 5 5 5 5
6 6 7 8 8 8 8 7 7 7 6 6 5 5 4 4 4 4 3 2 1 1 1 2 2 2 2 2 3 3 4 4 4 5 5 6 6 6 6 6 6 5 5
7 6 6 7 8 8 7 8 8 7 7 6 6 5 5 4 4 3 3 2 1 0 1 1 2 2 3 2 3 3 4 5 5 5 6 7 7 8 7 7 7 7 6
6 5 5 6 7 7 7 7 8 8 7 7 6 6 5 4 3 3 2 1 1 1 1 2 2 3 3 3 3 3 3 4 6 6 7 8 9 9 9 9 9 8 8
4 4 4 4 6 6 6 7 7 7 8 7 7 6 5 5 4 3 2 2 2 2 2 2 2 3 3 3 3 3 3 4 5 7 8 10 11 11 11 10 10 10 9
3 4 4 4 5 6 5 6 6 7 7 7 7 6 6 5 5 4 4 3 3 2 2 3 3 2 2 3 3 3 4 5 5 7 9 10 12 13 12 12 12 12 11
5 4 4 4 5 6 6 5 5 5 5 6 6 6 5 4 4 4 3 3 3 2 2 2 2 2 3 3 3 3 4 4 5 7 8 10 11 12 13 12 13 13 13
4 4 3 3 4 4 5 4 5 5 5 5 6 7 6 3 2 3 3 3 3 3 2 2 2 2 2 3 3 4 4 5 6 7 8 10 11 12 13 13 13 13 13
4 3 3 4 4 4 4 4 4 5 5 6 6 6 6 4 3 2 2 3 3 3 3 2 2 2 2 3 3 4 5 5 6 7 8 9 10 11 12 13 13 13 13
4 3 3 3 4 4 4 4 4 5 5 5 5 6 6 5 4 3 2 2 3 4 4 3 3 2 2 2 3 4 4 5 5 6 7 7 9 10 12 13 14 14 13
4 3 2 3 4 4 3 4 4 4 5 5 5 6 6 6 5 4 2 3 4 4 3 2 2 2 2 3 3 4 3 3 4 5 5 6 7 8 9 12 13 13 13
4 4 3 3 4 3 3 4 4 4 5 4 5 5 6 7 6 4 3 3 4 3 2 3 2 2 2 3 3 3 3 3 3 4 4 5 7 7 8 9 12 13 13
3 3 3 3 3 3 3 3 3 3 3 4 4 4 5 6 6 5 3 4 4 2 3 3 2 2 2 3 4 4 3 4 3 3 4 4 4 6 6 7 7 8 10
3 3 3 3 2 2 2 1 1 1 2 2 3 5 5 5 5 4 3 3 4 3 3 3 3 3 2 2 2 3 3 3 3 3 3 2 2 2 2 3 3 4 4
3 3 3 3 2 2 1 1 1 1 0 1 2 4 5 5 5 4 3 3 3 3 3 3 3 2 2 2 1 2 3 3 2 2 2 2 2 1 1 2 2 2 2
4 4 4 3 2 2 2 2 2 2 2 2 2 2 4 5 5 4 3 3 3 2 2 3 3 2 2 2 1 1 1 2 3 2 2 2 2 2 2 2 2 2 2
5 4 3 3 3 2 2 2 2 1 1 1 1 2 3 4 4 4 4 3 2 2 2 3 2 2 2 2 2 2 2 2 2 3 3 2 2 2 2 2 2 2 2
4 3 3 3 3 2 3 3 2 1 1 1 1 2 3 3 4 4 4 3 2 2 3 3 3 3 2 2 2 2 3 3 4 4 5 3 3 2 2 2 1 1 2
3 3 3 3 2 3 3 3 3 3 2 2 2 3 3 3 3 3 3 3 3 3 3 3 3 3 3 3 3 3 3 3 3 3 5 5 5 3 3 2 1 1 1
Wind_Direction
166 171 155 141 134 127 121 114 109 105 105 104 109 112 112 111 111 111 109 110 110 107 106 108 106 107 103 102 100 99 96 95 96 95 92 95 98 98 94 91 88 88 92
155 158 151 143 137 131 124 117 112 108 106 108 107 109 111 113 116 116 113 113 112 108 107 108 109 109 108 107 105 103 102 101 101 97 94 94 99 101 99 96 95 94 96
139 146 146 143 138 132 125 120 116 111 108 106 106 105 107 109 110 114 115 115 115 111 111 109 110 111 110 111 111 110 108 110 108 104 100 97 104 107 105 103 103 103 103
129 136 142 140 138 133 128 125 120 115 110 107 104 104 104 108 111 109 106 111 114 113 111 111 111 114 116 118 118 119 115 114 117 113 110 108 111 115 113 111 112 110 111
120 127 134 134 135 131 128 125 121 116 112 109 107 104 105 107 111 112 111 107 107 109 114 116 118 121 120 126 126 130 128 121 119 125 123 124 123 128 122 118 123 116 119
117 121 129 130 131 130 127 124 119 115 112 110 106 105 103 102 108 110 112 114 115 113 113 121 128 130 130 136 142 141 143 137 131 137 143 150 154 149 141 136 139 134 132
119 113 121 121 122 123 123 121 118 115 111 109 106 104 101 97 95 105 112 117 124 127 125 125 136 146 144 144 154 156 151 151 146 153 165 178 192 181 169 164 163 157 150
110 100 109 116 111 115 119 117 116 113 110 106 102 99 97 96 99 104 100 108 128 141 151 158 165 158 171 177 178 177 166 164 165 173 188 201 212 203 188 183 177 176 175
83 86 85 98 101 99 101 109 111 107 102 99 91 90 88 89 100 104 100 92 99 148 181 194 208 214 212 210 205 193 192 191 178 188 201 211 219 213 202 195 191 192 193
68 67 70 79 85 84 84 86 92 93 88 85 79 76 74 77 86 92 94 99 81 196 212 227 230 236 239 242 231 210 202 205 202 207 211 219 220 218 216 212 205 206 207
65 54 57 67 73 78 80 75 75 78 78 77 70 66 65 62 64 75 74 58 18 324 275 274 263 251 246 248 249 235 215 210 214 221 223 228 225 224 224 220 215 215 215
84 61 56 59 68 71 74 67 63 64 62 62 62 60 58 58 56 57 52 37 13 1 331 310 300 281 267 261 256 248 232 227 224 230 231 234 233 231 230 224 220 219 221
112 84 64 59 63 69 66 66 60 57 54 51 51 52 54 53 47 41 37 22 15 7 353 329 327 315 294 273 259 251 245 239 240 238 238 238 240 238 234 230 223 224 225
112 97 71 67 70 68 68 66 63 55 50 44 39 44 51 50 43 32 31 17 15 358 341 333 322 309 298 284 265 255 251 245 247 245 244 242 243 244 241 238 230 228 226
122 110 92 79 78 75 69 60 60 57 54 49 43 41 48 53 44 28 16 12 1 352 336 318 309 303 295 288 280 268 257 252 252 249 247 244 242 245 247 245 238 233 232
138 127 105 88 84 81 74 65 57 55 56 53 47 41 43 46 39 28 17 9 355 340 320 301 289 281 277 278 276 275 271 264 254 251 247 244 242 242 245 247 246 242 239
148 132 120 113 93 82 76 69 64 55 54 49 42 37 35 35 32 26 15 1 346 340 333 319 309 298 287 282 278 277 274 269 261 251 246 244 245 245 245 246 249 247 243
146 134 126 110 99 86 77 68 59 52 53 42 34 31 32 31 28 26 18 352 343 348 345 318 303 296 289 286 283 282 278 272 263 255 250 245 244 248 249 247 248 251 250
156 146 131 110 103 91 77 68 62 53 49 38 35 27 24 25 24 27 16 354 350 354 346 323 316 300 294 300 290 283 276 271 267 265 253 249 244 245 250 251 247 248 250
151 141 131 110 97 91 76 64 52 49 40 34 32 27 24 22 19 23 18 2 360 354 347 337 319 317 297 300 298 293 279 269 262 261 258 255 242 241 249 256 257 254 251
147 144 140 126 112 98 86 82 60 27 17 21 23 21 19 18 15 21 12 1 1 356 344 340 330 328 328 320 317 311 292 263 257 259 255 254 253 252 260 274 271 262 260
174 173 164 158 143 132 126 132 139 159 323 331 359 11 10 8 4 9 9 353 355 348 349 351 344 328 332 352 343 325 319 317 299 273 270 260 274 312 310 300 287 266 261
193 190 180 174 158 151 129 102 81 58 22 5 359 352 351 353 354 355 353 350 348 343 333 336 329 319 313 326 331 272 284 282 312 302 290 288 303 311 310 340 329 307 291
208 195 186 172 160 153 143 137 141 150 218 271 297 313 328 347 348 346 348 344 337 334 320 315 325 307 288 294 299 273 258 275 286 301 307 306 303 294 292 298 305 301 300
195 189 193 173 169 163 156 164 164 193 222 264 301 315 322 330 337 342 341 338 327 320 309 306 308 295 280 267 273 282 279 271 253 262 282 294 299 282 278 269 258 314 310
183 180 186 181 192 180 177 180 183 207 228 265 298 306 311 315 319 332 335 335 325 317 307 300 292 287 279 273 270 265 264 264 261 258 267 282 287 280 281 275 275 312 311
Height
1513 1515 1517 1519 1521 1522 1524 1525 1526 1527 1528 1529 1530 1531 1532 1533 1533 1534 1535 1536 1537 1538 1539 1539 1540 1540 1541 1541 1541 1542 1542 1542 1543 1543 1544 1544 1545 1545 1545 1546 1546 1546 1546
1512 1514 1517 1519 1521 1522 1524 1525 1526 1527 1528 1529 1530 1531 1531 1532 1533 1534 1535 1536 1537 1538 1539 1540 1540 1541 1541 1542 1542 1542 1543 1543 1543 1544 1544 1545 1545 1546 1546 1547 1547 1547 1547
1512 1514 1516 1518 1521 1522 1524 1525 1526 1527 1528 1529 1530 1531 1532 1532 1533 1534 1535 1536 1537 1538 1539 1540 1540 1541 1541 1542 1542 1542 1543 1543 1544 1544 1545 1545 1546 1546 1547 1547 1547 1548 1548
1512 1514 1516 1518 1520 1522 1523 1525 1526 1527 1528 1529 1530 1531 1531 1532 1533 1534 1535 1536 1537 1538 1539 1539 1540 1541 1541 1542 1542 1543 1543 1543 1544 1545 1545 1546 1546 1547 1547 1547 1548 1548 1548
1512 1514 1516 1518 1520 1522 1523 1524 1525 1527 1528 1529 1530 1531 1531 1532 1533 1534 1535 1536 1536 1537 1538 1539 1540 1540 1541 1542 1542 1543 1543 1544 1544 1545 1545 1546 1546 1547 1547 1547 1548 1548 1548
1512 1514 1516 1517 1519 1521 1523 1524 1525 1526 1527 1528 1529 1530 1531 1532 1533 1533 1534 1535 1536 1537 1538 1538 1539 1540 1541 1541 1542 1542 1543 1543 1544 1545 1545 1546 1546 1547 1547 1547 1548 1548 1548
1512 1514 1515 1517 1519 1520 1522 1523 1524 1525 1526 1528 1529 1529 1530 1531 1532 1533 1534 1535 1535 1536 1537 1538 1538 1539 1540 1540 1541 1542 1542 1543 1544 1544 1545 1545 1546 1547 1547 1547 1548 1548 1548
1511 1513 1515 1517 1518 1519 1521 1522 1523 1524 1525 1527 1528 1529 1529 1530 1531 1532 1533 1534 1535 1535 1536 1536 1537 1538 1539 1540 1540 1541 1542 1542 1543 1544 1544 1545 1545 1546 1547 1547 1548 1548 1548
1511 1513 1514 1515 1517 1518 1520 1521 1522 1523 1524 1525 1526 1527 1528 1529 1530 1531 1531 1532 1533 1534 1535 1535 1536 1537 1537 1538 1539 1540 1541 1541 1542 1543 1543 1544 1545 1545 1546 1546 1547 1547 1548
1510 1512 1513 1515 1516 1517 1518 1520 1520 1522 1523 1524 1525 1526 1527 1528 1528 1529 1530 1531 1531 1532 1533 1534 1534 1535 1536 1537 1537 1538 1539 1540 1541 1541 1542 1543 1544 1544 1545 1545 1546 1546 1547
1510 1510 1512 1513 1515 1516 1517 1518 1519 1520 1521 1523 1524 1524 1525 1526 1527 1527 1528 1529 1530 1530 1531 1532 1533 1533 1534 1535 1535 1536 1537 1538 1539 1540 1540 1541 1542 1543 1543 1544 1545 1545 1546
1509 1510 1511 1512 1514 1515 1517 1517 1518 1519 1520 1521 1522 1523 1523 1524 1525 1525 1526 1527 1527 1528 1529 1530 1530 1531 1531 1532 1533 1534 1534 1535 1536 1537 1538 1539 1540 1541 1541 1542 1543 1543 1544
1508 1509 1510 1511 1512 1514 1515 1517 1517 1518 1518 1519 1520 1521 1521 1522 1523 1523 1524 1524 1525 1526 1526 1527 1528 1528 1529 1529 1530 1531 1532 1533 1533 1534 1535 1537 1537 1538 1539 1540 1540 1541 1542
1508 1509 1510 1510 1511 1513 1514 1515 1516 1517 1517 1518 1518 1519 1519 1520 1521 1521 1522 1522 1522 1523 1523 1524 1525 1526 1526 1526 1527 1528 1529 1529 1530 1531 1532 1533 1534 1535 1536 1537 1537 1538 1539
1508 1509 1510 1511 1512 1513 1513 1514 1515 1515 1516 1516 1517 1517 1518 1518 1518 1519 1519 1520 1520 1520 1521 1521 1522 1523 1523 1523 1524 1524 1525 1526 1527 1528 1529 1530 1531 1532 1533 1534 1534 1535 1536
1507 1508 1510 1511 1512 1512 1513 1513 1514 1514 1514 1515 1515 1515 1516 1516 1516 1517 1517 1517 1517 1518 1518 1518 1518 1519 1520 1520 1520 1521 1521 1522 1523 1524 1525 1526 1527 1528 1529 1530 1530 1531 1532
1506 1508 1509 1510 1511 1512 1512 1512 1513 1513 1513 1513 1513 1514 1514 1514 1514 1514 1514 1514 1514 1514 1515 1515 1515 1515 1516 1516 1516 1517 1517 1518 1518 1519 1520 1521 1522 1524 1525 1526 1526 1527 1528
1506 1507 1508 1509 1510 1511 1511 1511 1512 1512 1512 1512 1512 1512 1512 1512 1512 1512 1512 1512 1512 1511 1511 1511 1511 1511 1512 1512 1512 1513 1513 1513 1514 1515 1516 1516 1517 1519 1520 1521 1522 1523 1524
1505 1506 1507 1508 1509 1510 1510 1510 1511 1511 1511 1511 1510 1510 1510 1510 1510 1510 1509 1509 1509 1508 1508 1508 1508 1508 1508 1508 1508 1508 1508 1509 1510 1510 1511 1512 1512 1514 1515 1516 1517 1518 1519
1504 1505 1506 1507 1508 1508 1509 1509 1510 1510 1509 1509 1509 1509 1509 1508 1508 1507 1507 1506 1506 1505 1505 1505 1505 1504 1504 1504 1503 1503 1504 1504 1505 1505 1506 1507 1508 1509 1510 1511 1512 1512 1514
1502 1503 1505 1505 1506 1507 1507 1508 1508 1508 1508 1508 1508 1507 1506 1506 1505 1505 1504 1504 1503 1502 1502 1502 1501 1501 1501 1501 1500 1499 1499 1499 1500 1501 1502 1502 1503 1504 1505 1506 1506 1507 1508
1501 1502 1503 1504 1505 1505 1506 1506 1506 1506 1506 1506 1506 1505 1504 1504 1503 1502 1502 1501 1500 1500 1499 1499 1498 1498 1498 1498 1498 1496 1495 1496 1495 1496 1497 1498 1498 1499 1500 1501 1501 1502 1502
1499 1500 1501 1502 1503 1504 1504 1504 1505 1505 1504 1504 1504 1503 1502 1501 1501 1500 1499 1498 1497 1497 1496 1496 1496 1495 1495 1495 1495 1496 1495 1493 1492 1492 1492 1493 1494 1494 1495 1495 1496 1496 1497
1497 1499 1500 1501 1501 1502 1502 1502 1502 1502 1502 1502 1501 1501 1500 1499 1498 1497 1496 1495 1494 1494 1493 1493 1492 1492 1492 1492 1492 1492 1493 1492 1491 1488 1488 1489 1490 1490 1490 1491 1491 1491 1492
1495 1497 1498 1498 1499 1500 1500 1500 1500 1500 1499 1499 1499 1498 1497 1496 1495 1494 1493 1492 1491 1490 1490 1489 1489 1489 1488 1488 1488 1488 1488 1488 1488 1487 1484 1484 1485 1485 1485 1485 1486 1486 1487
1493 1494 1495 1496 1497 1497 1497 1497 1497 1497 1496 1496 1495 1494 1494 1493 1492 1491 1489 1488 1488 1487 1486 1486 1485 1485 1484 1484 1484 1484 1484 1484 1483 1483 1482 1480 1479 1479 1480 1480 1480 1481 1481